Location: Vinland
(47.7731°N, 122.6974°W)
Time: 01:17:15
(UTC+00:00)

Transit 4A - Pass Details

Date: 03 April 2023
Orbit: 864 x 979 km, 66.8° (Epoch: 29 May)

Event Time Altitude Azimuth Distance (km) Brightness Sun altitude
Exits shadow 12:21:23 - 198° (SSW) 2,679 9.9 -14.3°
Reaches altitude 10° 12:21:51 10° 197° (SSW) 2,506 9.8 -14.3°
Maximum altitude 12:27:32 62° 118° (ESE) 988 8.2 -13.4°
Drops below altitude 10° 12:33:23 10° 40° (NE) 2,575 11.3 -12.5°
Sets 12:35:57 0° 37° (NE) 3,536 12.0 -12.1°
